Humidity-temperature Sensor

Selected Measurement Type: Relative Humidity

 
Relative Humidity [%]     6 entries per hour
Showing data from 5/19/2022 (00:00:00 Z) to 5/18/2022 (00:01:00 Z)
Previous Next [ Day | 3-Days | 7-Days ]
First Last
Prev [ Day | 3-Days | 7-Days ] Next
First Last

Start Time:     :
End Time:     :     
Time (in GMT) :00 :50 :40 :30 :20 :10
Previous Next [ Day | 3-Days | 7-Days ]
First Last
Prev [ Day | 3-Days | 7-Days ] Next
First Last


123 => good data
MM => data is determined as missing
-- => data not received/configured
Back to Top Back to Top
5/19/2022 00:00 to 23:10 88.00 87.70 88.21 87.98 87.78 88.21
5/18/2022 23:00 to 22:10 88.29 88.37 88.29 87.86 87.53 88.00
5/18/2022 22:00 to 21:10 87.86 87.76 88.46 88.54 88.31 88.21
5/18/2022 21:00 to 20:10 88.64 88.33 88.62 88.91 89.73 90.68
5/18/2022 20:00 to 19:10 90.63 90.72 90.55 90.14 90.08 89.81
5/18/2022 19:00 to 18:10 89.32 89.85 90.29 89.96 89.13 87.88
5/18/2022 18:00 to 17:10 87.55 88.15 88.40 88.37 88.91 88.89
5/18/2022 17:00 to 16:10 88.46 88.17 87.72 87.51 87.74 87.82
5/18/2022 16:00 to 15:10 87.45 87.39 87.53 87.88 87.70 88.19
5/18/2022 15:00 to 14:10 88.13 88.07 88.40 88.40 88.64 88.52
5/18/2022 14:00 to 13:10 88.56 88.70 88.60 88.21 88.44 88.60
5/18/2022 13:00 to 12:10 89.81 90.66 91.37 92.46 92.67 91.99
5/18/2022 12:00 to 11:10 91.23 90.37 90.39 89.83 89.53 89.57
5/18/2022 11:00 to 10:10 89.96 90.27 90.96 90.98 90.86 90.88
5/18/2022 10:00 to 9:10 91.21 91.52 91.66 91.09 91.40 92.18
5/18/2022 09:00 to 8:10 93.10 93.72 93.84 93.00 92.75 93.22
5/18/2022 08:00 to 7:10 93.43 93.33 92.90 92.75 93.00 93.16
5/18/2022 07:00 to 6:10 93.33 93.47 93.70 93.86 93.64 92.96
5/18/2022 06:00 to 5:10 92.18 90.74 89.85 88.81 87.61 87.68
5/18/2022 05:00 to 4:10 88.29 88.68 88.93 89.36 89.50 90.20
5/18/2022 04:00 to 3:10 90.74 91.81 92.46 92.77 93.10 92.81
5/18/2022 03:00 to 2:10 93.04 92.98 92.90 92.67 92.24 91.74
5/18/2022 02:00 to 1:10 92.30 92.96 93.53 94.00 94.52 95.05
5/18/2022 01:00 to 0:10 95.14 95.07 94.66 94.50 94.42 94.07